This is the latest recevied weather packets stored in our database for station/object AG7BI. If no packets are shown the sender has not sent any weather packets the latest 1 day(s).
| Time | Temp. | Humidity | Pressure | Rain* | Wind** | Luminosity | Snow |
|---|---|---|---|---|---|---|---|
| 1778050552 | 8.33° C | 91% | 1016.9 hPa | 0 mm | 0.45 m/s, 147° | - | - |
| 1778050252 | 8.89° C | 90% | 1017 hPa | 0 mm | 0 m/s | - | - |
| 1778049952 | 8.89° C | 90% | 1017.1 hPa | 0 mm | 0.89 m/s, 122° | - | - |
| 1778049652 | 8.89° C | 90% | 1017.2 hPa | 0 mm | 0.45 m/s, 108° | - | - |
| 1778049352 | 9.44° C | 90% | 1016.9 hPa | 0 mm | 0.45 m/s, 145° | - | - |
| 1778049052 | 9.44° C | 90% | 1017 hPa | 0 mm | 0.89 m/s, 163° | - | - |
| 1778048752 | 9.44° C | 90% | 1016.8 hPa | 0 mm | 0.45 m/s, 151° | - | - |
| 1778048452 | 9.44° C | 90% | 1016.9 hPa | 0 mm | 0.89 m/s, 154° | - | - |
| 1778048152 | 10° C | 90% | 1016.9 hPa | 0 mm | 0.45 m/s, 166° | - | - |
| 1778047852 | 10° C | 91% | 1016.8 hPa | 0 mm | 0.89 m/s, 153° | - | - |
| 1778047552 | 10° C | 91% | 1016.7 hPa | 0 mm | 0 m/s | - | - |
| 1778047252 | 10° C | 91% | 1016.7 hPa | 0 mm | 0 m/s | - | - |
| 1778046952 | 10° C | 91% | 1016.7 hPa | 0 mm | 0.45 m/s, 160° | - | - |
| 1778046652 | 10° C | 91% | 1016.8 hPa | 0 mm | 0.45 m/s, 115° | - | - |
| 1778046352 | 10° C | 91% | 1016.7 hPa | 0 mm | 0.45 m/s, 155° | - | - |
| 1778046052 | 10° C | 91% | 1016.7 hPa | 0 mm | 0 m/s | - | - |
| 1778045752 | 10° C | 91% | 1016.6 hPa | 0 mm | 0.45 m/s, 136° | - | - |
| 1778045452 | 10° C | 90% | 1016.6 hPa | 0 mm | 0.45 m/s, 141° | - | - |
| 1778045152 | 10° C | 90% | 1016.4 hPa | 0 mm | 0.45 m/s, 174° | - | - |
| 1778044852 | 10.56° C | 89% | 1016.3 hPa | 0 mm | 0.45 m/s, 123° | - | - |
| 1778044552 | 10.56° C | 90% | 1016.3 hPa | 0 mm | 0.45 m/s, 145° | - | - |
| 1778044252 | 10.56° C | 89% | 1016.1 hPa | 0 mm | 0.45 m/s, 139° | - | - |
| 1778043952 | 10.56° C | 89% | 1016.1 hPa | 0 mm | 0.45 m/s, 121° | - | - |
| 1778043652 | 10.56° C | 88% | 1015.9 hPa | 0 mm | 0.45 m/s, 134° | - | - |
| 1778043352 | 10.56° C | 88% | 1016 hPa | 0 mm | 0.45 m/s, 132° | - | - |
* Rain latest hour (hover to see other rain measurements)
** Current wind speed in m/s (hover to see current wind gust speed)